�������l�o���
Date,Time,MP-1(��Sv/h),MP-2(��Sv/h),MP-3(��Sv/h),MP-4(��Sv/h),MP-5(��Sv/h),MP-6(��Sv/h),MP-7(��Sv/h),MP-8(��Sv/h),����,����(m/s),���J
2023/07/21,00:00,0.518,0.794,0.488,0.950,0.697,0.320,0.565,0.534,�k�k��,4.3,��
2023/07/21,00:10,0.519,0.794,0.487,0.951,0.700,0.319,0.564,0.532,�k�k��,3.8,��
2023/07/21,00:20,0.518,0.797,0.488,0.951,0.699,0.319,0.565,0.532,�k�k��,3.1,��
2023/07/21,00:30,0.518,0.794,0.489,0.951,0.699,0.320,0.564,0.531,�k�k��,4.6,��
2023/07/21,00:40,0.518,0.794,0.487,0.952,0.700,0.322,0.566,0.532,�k�k��,4.1,��
2023/07/21,00:50,0.518,0.794,0.489,0.951,0.700,0.320,0.564,0.532,�k�k��,4.1,��
2023/07/21,01:00,0.516,0.795,0.489,0.955,0.700,0.319,0.565,0.533,�k�k��,3.6,��
2023/07/21,01:10,0.520,0.795,0.487,0.951,0.701,0.322,0.565,0.533,�k�k��,3.1,��
2023/07/21,01:20,0.519,0.793,0.488,0.952,0.699,0.321,0.565,0.531,�k�k��,3.2,��
2023/07/21,01:30,0.519,0.797,0.487,0.953,0.700,0.320,0.564,0.532,�k�k��,3.0,��
2023/07/21,01:40,0.518,0.795,0.487,0.952,0.701,0.320,0.565,0.533,�k,3.4,��
2023/07/21,01:50,0.519,0.793,0.487,0.952,0.699,0.321,0.565,0.533,�k,4.4,��
2023/07/21,02:00,0.519,0.796,0.485,0.951,0.699,0.320,0.565,0.533,�k�k��,4.6,�L
2023/07/21,02:10,0.518,0.793,0.488,0.953,0.701,0.321,0.563,0.532,�k,4.2,�L
2023/07/21,02:20,0.519,0.794,0.486,0.953,0.699,0.321,0.564,0.532,�k,4.0,�L
2023/07/21,02:30,0.519,0.792,0.487,0.952,0.700,0.321,0.563,0.532,�k�k��,4.4,�L
2023/07/21,02:40,0.519,0.793,0.488,0.953,0.700,0.321,0.564,0.534,�k�k��,4.3,�L
2023/07/21,02:50,0.518,0.793,0.484,0.951,0.697,0.321,0.564,0.532,�k�k��,4.9,�L
2023/07/21,03:00,0.517,0.793,0.486,0.952,0.698,0.320,0.562,0.532,�k,4.4,�L
2023/07/21,03:10,0.516,0.791,0.485,0.949,0.694,0.321,0.562,0.531,�k�k��,5.1,�L
2023/07/21,03:20,0.513,0.788,0.485,0.951,0.696,0.319,0.561,0.531,�k�k��,4.2,�L
2023/07/21,03:30,0.515,0.786,0.483,0.949,0.694,0.321,0.562,0.531,�k�k��,4.6,�L
2023/07/21,03:40,0.515,0.784,0.482,0.946,0.692,0.321,0.562,0.530,�k�k��,5.1,�L
2023/07/21,03:50,0.512,0.781,0.481,0.948,0.691,0.319,0.562,0.531,�k�k��,5.1,�L
2023/07/21,04:00,0.512,0.780,0.479,0.945,0.688,0.318,0.562,0.531,�k�k��,4.7,�L
2023/07/21,04:10,0.511,0.778,0.480,0.943,0.688,0.318,0.561,0.530,�k�k��,4.4,�L
2023/07/21,04:20,0.510,0.775,0.478,0.941,0.687,0.318,0.561,0.529,�k�k��,4.8,�L
2023/07/21,04:30,0.508,0.775,0.479,0.941,0.688,0.317,0.561,0.532,�k�k��,3.7,�L
2023/07/21,04:40,0.509,0.774,0.476,0.939,0.688,0.319,0.560,0.529,�k�k��,4.3,�L
2023/07/21,04:50,0.508,0.774,0.477,0.939,0.686,0.318,0.559,0.528,�k�k��,5.1,�L
2023/07/21,05:00,0.509,0.772,0.477,0.940,0.687,0.318,0.558,0.530,�k�k��,5.3,�L
2023/07/21,05:10,0.507,0.774,0.478,0.937,0.687,0.319,0.558,0.528,�k�k��,4.6,�L
2023/07/21,05:20,0.508,0.774,0.477,0.937,0.685,0.318,0.558,0.528,�k�k��,5.5,�L
2023/07/21,05:30,0.509,0.774,0.477,0.938,0.687,0.318,0.558,0.529,�k�k��,5.1,�L
2023/07/21,05:40,0.507,0.774,0.478,0.938,0.687,0.316,0.558,0.529,�k�k��,5.4,�L
2023/07/21,05:50,0.508,0.774,0.477,0.937,0.686,0.318,0.558,0.530,�k�k��,5.4,�L
2023/07/21,06:00,0.508,0.776,0.479,0.940,0.685,0.317,0.558,0.529,�k�k��,5.3,�L
2023/07/21,06:10,0.508,0.774,0.480,0.939,0.685,0.317,0.560,0.529,�k�k��,5.6,�L
2023/07/21,06:20,0.509,0.774,0.479,0.938,0.684,0.317,0.558,0.528,�k�k��,5.5,�L
2023/07/21,06:30,0.508,0.774,0.479,0.937,0.685,0.317,0.557,0.528,�k�k��,4.5,�L
2023/07/21,06:40,0.507,0.772,0.479,0.938,0.686,0.318,0.558,0.527,�k�k��,4.8,�L
2023/07/21,06:50,0.508,0.770,0.479,0.935,0.685,0.317,0.557,0.528,�k�k��,4.3,�L
2023/07/21,07:00,0.506,0.771,0.478,0.936,0.681,0.316,0.558,0.528,�k�k��,4.6,�L
2023/07/21,07:10,0.506,0.771,0.476,0.936,0.681,0.316,0.559,0.527,�k��,3.7,�L
2023/07/21,07:20,0.505,0.769,0.477,0.935,0.680,0.318,0.557,0.526,�k�k��,4.2,�L
2023/07/21,07:30,0.503,0.771,0.475,0.931,0.677,0.317,0.558,0.526,�k��,2.2,�L
2023/07/21,07:40,0.504,0.766,0.475,0.930,0.676,0.317,0.557,0.525,�k��,5.3,�L
2023/07/21,07:50,0.506,0.766,0.474,0.929,0.678,0.317,0.557,0.525,�k�k��,5.2,�L
2023/07/21,08:00,0.504,0.764,0.473,0.927,0.679,0.316,0.558,0.526,�k�k��,4.8,�L
2023/07/21,08:10,0.502,0.762,0.474,0.929,0.677,0.316,0.556,0.525,�k�k��,4.4,�L
2023/07/21,08:20,0.500,0.761,0.473,0.928,0.677,0.315,0.556,0.526,�k�k��,3.0,�L
2023/07/21,08:30,0.500,0.758,0.471,0.924,0.672,0.315,0.555,0.523,�k��,2.9,�L
2023/07/21,08:40,0.502,0.756,0.471,0.921,0.672,0.315,0.552,0.523,�k,2.6,�L
2023/07/21,08:50,0.503,0.760,0.473,0.921,0.672,0.315,0.554,0.521,�k�k��,2.0,�L
2023/07/21,09:00,0.505,0.759,0.473,0.920,0.676,0.316,0.555,0.521,�k�k��,1.2,�L
2023/07/21,09:10,0.504,0.761,0.473,0.921,0.672,0.317,0.555,0.523,�k��,1.4,��
2023/07/21,09:20,0.503,0.760,0.471,0.922,0.676,0.314,0.555,0.525,�k�k��,3.1,��
2023/07/21,09:30,0.503,0.761,0.473,0.921,0.674,0.316,0.554,0.524,�k�k��,2.8,��
2023/07/21,09:40,0.503,0.760,0.471,0.922,0.673,0.315,0.553,0.523,�k��,2.6,��
2023/07/21,09:50,0.501,0.761,0.473,0.923,0.673,0.314,0.553,0.523,���k��,2.3,��
2023/07/21,10:00,0.502,0.759,0.471,0.921,0.674,0.313,0.554,0.522,���쓌,1.9,��
2023/07/21,10:10,0.501,0.763,0.473,0.922,0.673,0.314,0.554,0.522,���쓌,2.3,��
2023/07/21,10:20,0.501,0.759,0.472,0.922,0.674,0.312,0.554,0.523,��,3.0,��
2023/07/21,10:30,0.504,0.762,0.472,0.921,0.675,0.312,0.553,0.522,��,3.1,��
2023/07/21,10:40,0.506,0.761,0.470,0.923,0.672,0.313,0.554,0.521,��,2.8,�L
2023/07/21,10:50,0.503,0.758,0.471,0.923,0.674,0.313,0.555,0.523,��,4.0,�L
2023/07/21,11:00,0.500,0.764,0.471,0.924,0.674,0.312,0.554,0.523,���k��,3.4,��
2023/07/21,11:10,0.503,0.761,0.470,0.923,0.675,0.313,0.555,0.524,��,3.5,��
2023/07/21,11:20,0.504,0.762,0.470,0.923,0.674,0.314,0.554,0.523,��,2.3,��
2023/07/21,11:30,0.503,0.763,0.471,0.924,0.674,0.312,0.554,0.522,��,2.6,��
2023/07/21,11:40,0.505,0.765,0.473,0.923,0.675,0.314,0.554,0.522,��,3.8,��
2023/07/21,11:50,0.505,0.765,0.472,0.922,0.676,0.315,0.555,0.523,��,2.6,��
2023/07/21,12:00,0.504,0.767,0.469,0.924,0.676,0.312,0.554,0.523,��,2.5,��
2023/07/21,12:10,0.505,0.764,0.473,0.923,0.678,0.314,0.555,0.523,��,3.3,�L
2023/07/21,12:20,0.503,0.767,0.471,0.924,0.678,0.315,0.556,0.523,��,1.2,��
2023/07/21,12:30,0.504,0.769,0.474,0.923,0.677,0.314,0.555,0.523,��,1.5,��
2023/07/21,12:40,0.506,0.766,0.471,0.923,0.678,0.314,0.555,0.524,���k��,0.8,�L
2023/07/21,12:50,0.505,0.767,0.474,0.922,0.678,0.313,0.556,0.524,��,1.5,�L
2023/07/21,13:00,0.505,0.767,0.473,0.923,0.679,0.312,0.556,0.524,��,2.6,�L
2023/07/21,13:10,0.506,0.766,0.473,0.925,0.679,0.315,0.555,0.523,��,2.0,�L
2023/07/21,13:20,0.505,0.770,0.472,0.926,0.680,0.314,0.555,0.524,��,1.7,�L
2023/07/21,13:30,0.505,0.767,0.474,0.925,0.680,0.313,0.557,0.523,���쓌,2.0,�L
2023/07/21,13:40,0.506,0.767,0.473,0.924,0.680,0.314,0.554,0.522,���k��,1.5,��
2023/07/21,13:50,0.507,0.769,0.473,0.923,0.679,0.314,0.556,0.522,�k��,1.5,�L
2023/07/21,14:00,0.505,0.767,0.473,0.923,0.678,0.314,0.556,0.524,�k��,1.5,�L
2023/07/21,14:10,0.506,0.769,0.474,0.925,0.678,0.314,0.557,0.525,�k��,1.9,�L
2023/07/21,14:20,0.505,0.769,0.474,0.925,0.681,0.315,0.557,0.524,��,1.2,�L
2023/07/21,14:30,0.505,0.768,0.475,0.927,0.680,0.314,0.555,0.524,�k��,1.5,��
2023/07/21,14:40,0.506,0.769,0.474,0.927,0.682,0.315,0.558,0.523,�k�k��,1.5,��
2023/07/21,14:50,0.508,0.767,0.475,0.926,0.682,0.314,0.556,0.523,�k��,1.5,��
2023/07/21,15:00,0.506,0.770,0.475,0.927,0.684,0.315,0.556,0.524,�k��,2.0,��
2023/07/21,15:10,0.506,0.774,0.476,0.928,0.683,0.315,0.558,0.524,�k�k��,3.0,��
2023/07/21,15:20,0.507,0.772,0.475,0.929,0.681,0.314,0.556,0.525,�k��,2.6,��
2023/07/21,15:30,0.506,0.773,0.476,0.928,0.683,0.313,0.558,0.523,�k�k��,3.9,��
2023/07/21,15:40,0.506,0.771,0.477,0.930,0.682,0.315,0.558,0.524,�k�k��,3.6,��
2023/07/21,15:50,0.507,0.770,0.477,0.928,0.682,0.313,0.556,0.523,�k�k��,4.2,�L
2023/07/21,16:00,0.507,0.773,0.475,0.927,0.681,0.315,0.558,0.524,�k�k��,4.1,�L
2023/07/21,16:10,0.507,0.772,0.474,0.929,0.683,0.316,0.557,0.523,�k�k��,4.0,�L
2023/07/21,16:20,0.507,0.772,0.475,0.927,0.683,0.314,0.558,0.525,�k�k��,4.4,�L
2023/07/21,16:30,0.508,0.772,0.476,0.928,0.683,0.314,0.559,0.525,�k�k��,4.4,�L
2023/07/21,16:40,0.508,0.773,0.477,0.929,0.685,0.316,0.558,0.526,�k�k��,4.4,�L
2023/07/21,16:50,0.507,0.771,0.477,0.930,0.683,0.316,0.558,0.525,�k,4.1,�L
2023/07/21,17:00,0.507,0.774,0.477,0.929,0.683,0.315,0.559,0.525,�k,4.0,�L
2023/07/21,17:10,0.506,0.774,0.477,0.931,0.684,0.316,0.559,0.526,�k,3.2,�L
2023/07/21,17:20,0.506,0.774,0.475,0.929,0.684,0.315,0.557,0.526,�k,3.0,�L
2023/07/21,17:30,0.506,0.771,0.476,0.929,0.682,0.316,0.557,0.527,�k�k��,3.1,��
2023/07/21,17:40,0.506,0.773,0.477,0.929,0.683,0.315,0.558,0.524,�k�k��,3.3,��
2023/07/21,17:50,0.506,0.773,0.476,0.929,0.683,0.315,0.558,0.526,�k�k��,2.8,��
2023/07/21,18:00,0.507,0.774,0.475,0.927,0.684,0.315,0.559,0.525,�k�k��,2.3,��
2023/07/21,18:10,0.508,0.774,0.477,0.930,0.685,0.315,0.559,0.526,�k�k��,2.3,��
2023/07/21,18:20,0.508,0.775,0.475,0.931,0.684,0.315,0.557,0.526,�k,2.5,��
2023/07/21,18:30,0.507,0.773,0.478,0.931,0.684,0.315,0.559,0.526,�k,1.9,��
2023/07/21,18:40,0.508,0.774,0.477,0.931,0.684,0.315,0.559,0.525,�k,1.7,��
2023/07/21,18:50,0.507,0.774,0.477,0.930,0.685,0.314,0.559,0.527,�k��,2.5,��
2023/07/21,19:00,0.506,0.772,0.477,0.931,0.683,0.315,0.558,0.527,�k�k��,2.6,��
2023/07/21,19:10,0.509,0.774,0.477,0.930,0.687,0.315,0.558,0.526,�k�k��,2.9,��
2023/07/21,19:20,0.508,0.773,0.478,0.928,0.683,0.314,0.557,0.526,�k�k��,3.1,��
2023/07/21,19:30,0.508,0.774,0.478,0.931,0.685,0.316,0.560,0.525,�k�k��,2.3,��
2023/07/21,19:40,0.507,0.774,0.477,0.930,0.685,0.316,0.559,0.525,�k�k��,2.5,��
2023/07/21,19:50,0.509,0.774,0.478,0.931,0.685,0.316,0.560,0.526,�k�k��,2.0,��
2023/07/21,20:00,0.507,0.774,0.478,0.929,0.683,0.315,0.559,0.527,�k�k��,1.7,��
2023/07/21,20:10,0.508,0.776,0.478,0.932,0.683,0.315,0.558,0.526,�k�k��,2.3,��
2023/07/21,20:20,0.507,0.774,0.478,0.930,0.684,0.316,0.559,0.526,�k�k��,2.3,��
2023/07/21,20:30,0.508,0.775,0.478,0.929,0.685,0.315,0.557,0.527,�k��,2.6,��
2023/07/21,20:40,0.508,0.776,0.477,0.929,0.684,0.315,0.557,0.528,�k�k��,2.6,��
2023/07/21,20:50,0.510,0.774,0.477,0.932,0.684,0.316,0.559,0.527,�k��,1.9,��
2023/07/21,21:00,0.510,0.776,0.478,0.930,0.683,0.316,0.560,0.527,�k�k��,2.2,��
2023/07/21,21:10,0.509,0.775,0.478,0.933,0.685,0.316,0.559,0.527,�k�k��,2.2,��
2023/07/21,21:20,0.509,0.777,0.478,0.931,0.684,0.315,0.558,0.528,�k�k��,2.3,��
2023/07/21,21:30,0.508,0.774,0.477,0.931,0.682,0.316,0.561,0.528,�k�k��,2.0,��
2023/07/21,21:40,0.510,0.775,0.479,0.933,0.684,0.316,0.559,0.527,�k��,2.3,��
2023/07/21,21:50,0.508,0.778,0.478,0.932,0.684,0.314,0.560,0.527,�k��,2.3,��
2023/07/21,22:00,0.508,0.774,0.479,0.931,0.683,0.315,0.561,0.527,�k��,1.9,��
2023/07/21,22:10,0.510,0.774,0.477,0.933,0.685,0.316,0.558,0.527,�k,2.2,��
2023/07/21,22:20,0.508,0.774,0.478,0.933,0.685,0.315,0.559,0.527,�k�k��,2.6,��
2023/07/21,22:30,0.507,0.776,0.477,0.931,0.686,0.315,0.559,0.527,�k�k��,2.3,��
2023/07/21,22:40,0.509,0.774,0.478,0.933,0.684,0.316,0.558,0.527,�k,2.2,��
2023/07/21,22:50,0.510,0.776,0.478,0.931,0.683,0.317,0.557,0.527,�k,2.3,��
2023/07/21,23:00,0.511,0.774,0.479,0.932,0.685,0.316,0.558,0.525,�k,2.6,��
2023/07/21,23:10,0.508,0.776,0.479,0.933,0.684,0.315,0.558,0.527,�k�k��,2.6,��
2023/07/21,23:20,0.508,0.775,0.478,0.932,0.684,0.315,0.558,0.528,�k,2.9,��
2023/07/21,23:30,0.509,0.775,0.478,0.933,0.685,0.315,0.560,0.526,�k�k��,2.0,��
2023/07/21,23:40,0.508,0.775,0.477,0.934,0.684,0.315,0.560,0.529,�k�k��,2.0,��
2023/07/21,23:50,0.509,0.775,0.477,0.931,0.685,0.315,0.559,0.528,�k,1.7,��
